Tracking 31027 objects as of 19-Jul-2025
HD Live streaming from Space Station
objects crossing your sky now

SSA

Track SSA now!
10-day predictions
SSA is classified as:


NORAD ID: 13844
Int'l Code: 1983-008E
Perigee: 438.5 km
Apogee: 1,537.1 km
Inclination: 63.3 °
Period: 104.7 minutes
Semi major axis: 7358 km
RCS: Unknown
Launch date: February 9, 1983
Source: United States (US)
Launch site: AIR FORCE WESTERN TEST RANGE (AFWTR)
Your satellite tracking list
SL-8 DEB
Track 1 satellite(s)




NASA's NSSDC Master Catalog

Two Line Element Set (TLE):
1 13844U 83008E   25199.40905579  .00001903  00000-0  24575-3 0  9993
2 13844  63.3049 225.2515 0746448 129.0925 237.8971 13.75275077312906
Source of the keplerian elements: McCants